User: anonymous   Login
Location: Igon
(43.1667°N, 0.2333°W)
Time: 20:01:57
(UTC+00:00)
Language:

SKYMED 3 - Orbit

View from above orbital plane
View from above orbital plane
View from above satellite
View from above satellite

Ground track
Ground track

The orbit data is extracted from the following two-line orbital elements,

1 33412U 08054A   21169.46928062 -.00001513  00000-0 -18361-3 0  9990
2 33412  97.8906 353.3448 0001573  87.5860 272.5563 14.82147546684251
Epoch (UTC): 18 June 2021 11:15:45
Eccentricity: 0.0001573
inclination: 97.8906°
perigee height: 621 km
apogee height: 623 km
right ascension of ascending node: 353.3448°
argument of perigee: 87.5860°
revolutions per day: 14.82147546
mean anomaly at epoch: 272.5563°
orbit number at epoch: 68425

The dashed part of the orbit path shows where the satellite is in the earth's shadow,  

DLR